Hourly Data Report for November 28, 2021

MIRAMICHI RCS
NEW BRUNSWICK
Current Station Operator: ECCC - MSC

47°00'34.000" N
65°27'54.000" W
33.00 m
8100989
71744
ACQ

Download Data

Hourly Data (November 2021)
Hourly Data Report for November 28, 2021
TIME
LST
Temp Definition
°C
Dew Point Definition
°C
Rel Hum Definition
%
Precip. Amount Definition
mm

Wind Dir Definition
10's deg

Wind Spd Definition
km/h
Visibility Definition
km
Stn Press Definition
kPa
Hmdx Definition


Wind Chill Definition


Weather Definition


00:00 -3.5 -6.5 80 0.0 23 32   98.99   -11 LegendNANA
01:00 -3.7 -6.6 80 0.0 23 28   99.06   -11 LegendNANA
02:00 -3.6 -6.7 79 0.0 23 34   99.14   -12 LegendNANA
03:00 -3.6 -6.6 79 0.0 23 26   99.25   -11 LegendNANA
04:00 -3.9 -6.9 80 0.0 22 25   99.30   -11 LegendNANA
05:00 -4.3 -7.2 80 0.0 23 25   99.36   -11 LegendNANA
06:00 -4.5 -7.5 79 0.0 23 25   99.44   -12 LegendNANA
07:00 -5.0 -7.7 81 0.0 22 23   99.52   -12 LegendNANA
08:00 -5.0 -7.8 81 0.0 22 25   99.58   -12 LegendNANA
09:00 -4.4 -7.4 80 0.0 22 24   99.68   -11 LegendNANA
10:00 -4.2 -7.5 78 0.0 22 31   99.76   -12 LegendNANA
11:00 -3.5 -7.4 74 0.0 23 31   99.81   -11 LegendNANA
12:00 -2.4 -7.0 71 0.0 24 31   99.83   -10 LegendNANA
13:00 -2.5 -7.9 66 0.0 25 24   99.89   -9 LegendNANA
14:00 -2.2 -8.0 65 0.0 26 23   99.92   -8 LegendNANA
15:00 -2.3 -8.0 65 0.0 25 26   99.98   -9 LegendNANA
16:00 -2.6 -7.2 71 0.0 24 18   100.09   -8 LegendNANA
17:00 -2.8 -7.7 69 0.0 24 24   100.18   -9 LegendNANA
18:00 -3.0 -7.9 69 0.0 24 21   100.26   -9 LegendNANA
19:00 -3.5 -8.0 71 0.0 24 20   100.36   -10 LegendNANA
20:00 -3.8 -7.7 74 0.0 24 18   100.43   -10 LegendNANA
21:00 -4.6 -8.2 76 0.0 24 14   100.49   -10 LegendNANA
22:00 -4.2 -7.6 77 0.0 25 11   100.53   -9 LegendNANA
23:00 -4.2 -7.5 78 0.0 24 12   100.61   -9 LegendNANA

Notes on Data Quality.

Legend

  • E = Estimated
  • M = Missing
  • NA = Not Available*
  • [empty] = Indicates an unobserved value
Date modified: